Location: Góry Miechowskie
(50.3599°N, 20.1803°E)
Time: 22:53:03
(UTC+00:00)

Cosmos 1869 - Pass Details

Date: 23 September 2024
Orbit: 484 x 518 km, 82.5° (Epoch: 06 October)

Event Time Altitude Azimuth Distance (km) Brightness Sun altitude
Exits shadow 00:36:58 11° 2° (N) 1,678 6.3 -33.2°
Drops below altitude 10° 00:37:03 10° 3° (N) 1,715 6.4 -33.2°
Sets 00:39:12 0° 7° (N) 2,598 7.5 -33.0°
